Location: Newark
(52.8300°N, 8.0000°E)
Time: 21:37:00
(UTC+00:00)

STARLINK-1112 - Pass Details

Date: 31 January 2020
Orbit: 549 x 551 km, 53.0° (Epoch: 28 February)

Event Time Altitude Azimuth Distance (km) Brightness Sun altitude
Rises 17:20:00 0° 286° (WNW) 2,725 8.3 -10.6°
Reaches altitude 10° 17:22:20 10° 279° (W) 1,829 7.5 -11.0°
Maximum altitude 17:26:13 39° 210° (SSW) 829 4.9 -11.5°
Drops below altitude 10° 17:30:06 10° 141° (SE) 1,824 6.0 -12.1°
Enters shadow 17:31:54 - 135° (SE) 2,515 6.7 -12.4°
